sat.trackr.live / text

‹ back to catalog

STARLINK-32929

NORAD 63021 · 2025-032S

PAYLOAD ACTIVE UNKNOWN

§ Identity

Operator
Country
US
Launch date
2025-02-15
Launch site
AFETR
Launch vehicle
Mass (kg)
RCS (m²)

Purposes: comms

External: N2YO · Heavens-Above · Gunter

§ Orbital elements

Epoch: 2026-09-21T10:16:46.504128Z

Period
94.27 min
Inclination
43.0008°
Eccentricity
0.0001275
Mean motion
15.27589088 rev/d
Perigee alt
482.1 km
Apogee alt
483.9 km
Semi-major
6,861.2 km
B*
6.0733e-4
RAAN
310.7985°
Arg perigee
272.4250°
Mean anomaly
87.6456°
Rev number
9,055

§ Raw data

STARLINK-329291 63021U 25032S   26264.42831602  .00016492  00000+0  60733-3 0  99932 63021  43.0008 310.7985 0001275 272.4250  87.6456 15.27589088 90557

JSON: /api/v1/satellites/63021 · /tle

For live sub-satellite position, see the globe view (requires WebGL).

§ Visibility from observer

Set your observer location to see the next 7 days of passes ≥ 10°. The values pass through the URL so the page stays shareable.

No JS? Fill the form by hand. The geolocation button needs JavaScript.